Regional Weather Roundup
Issued by NWS Upton, NY

Current Version | Previous Version | Text Only | Print | Product List | Glossary On
Versions: 1 2 3 4 5 6 7 8 9 10 11 12 13 14 15 16 17 18 19 20 21 22 23 24 25 26 27 28 29 30 31 32 33 34 35 36 37 38 39 40 41 42 43 44 45 46 47 48 49 50
000
ASUS41 KOKX 050904
RWROKX

REGIONAL WEATHER ROUNDUP
NATIONAL WEATHER SERVICE NEW YORK NY
500 AM EDT SAT SEP 05 2015

NOTE: "FAIR" INDICATES FEW OR NO CLOUDS BELOW 12,000 FEET WITH NO
SIGNIFICANT WEATHER AND/OR OBSTRUCTIONS TO VISIBILITY.

NYZ071-072-176-178-NJZ106-104-051000-
NEW YORK CITY METRO AREA


CITY           SKY/WX    TMP DP  RH WIND       PRES   REMARKS
CENTRAL PARK   CLEAR     68  60  75 VRB5      30.25S
LAGUARDIA APRT PTCLDY    68  60  75 E8        30.22S
KENNEDY INTL   PTCLDY    66  60  81 NE5       30.23S
NEWARK/LIBERTY FAIR      69  62  78 E3        30.22S
BRNX BOT. GARD   N/A     66  59  77 E3        30.22F
TETERBORO      PTCLDY    69  59  70 N6        30.22R
$$

NYZ177-179-078>081-051000-
LONG ISLAND NEW YORK

CITY           SKY/WX    TMP DP  RH WIND       PRES   REMARKS
FARMINGDALE    CLEAR     64  59  83 NE5       30.22S
ISLIP          PTCLDY    62  58  86 N3        30.21R
SHIRLEY        MOCLDY    61  58  90 CALM      30.23R
WESTHAMPTON    CLEAR     57  55  93 NE3       30.24R
MONTAUK POINT    N/A     65  61  87 NE6       30.24R
$$

NYZ052-065-067-051000-
HUDSON VALLEY

CITY           SKY/WX    TMP DP  RH WIND       PRES   REMARKS
WHITE PLAINS   CLEAR     63  57  81 NE3       30.23S
NEWBURGH       PTCLDY    66  61  82 VRB6      30.25
MONTGOMERY     PTCLDY    65  56  72 E6        30.24R
POUGHKEEPSIE   PTCLDY    61  57  87 CALM      30.24R
ALBANY         PTCLDY    62  56  80 CALM      30.24R
$$

NJZ001-105-106-008-010-013-015-019>022-104-051000-
NEW JERSEY

CITY           SKY/WX    TMP DP  RH WIND       PRES   REMARKS
NEWARK/LIBERTY FAIR      69  62  78 E3        30.22S
TETERBORO      PTCLDY    69  59  70 N6        30.22R
CALDWELL       PTCLDY    67  59  75 E3        30.23S
MORRISTOWN     CLOUDY    66  61  82 CALM      30.23S
SOMERVILLE     CLEAR     64  61  90 CALM      30.21S
SUSSEX         FOG       61  58  90 CALM      30.24S VSB 3/4
ANDOVER          N/A     65  64  97 NE3       30.24S
TRENTON        CLOUDY    70  63  78 E9        30.21R
MILLVILLE      CLOUDY    70  65  84 NE9       30.18R
ATLANTIC CITY  CLOUDY    73  65  75 NE13      30.18R
WRIGHTSTOWN    CLOUDY    70  64  82 NE13      30.18R
TOMS RIVER     CLOUDY    70  63  78 E8        30.21R
BELMAR         MOCLDY    70  57  64 NE10      30.21S
$$

PAZ047>061-062-071-051000-
EASTERN PENNSYLVANIA

CITY           SKY/WX    TMP DP  RH WIND       PRES   REMARKS
PHILADELPHIA   CLOUDY    72  63  73 NE9       30.21R
ALLENTOWN      CLOUDY    69  64  84 NE5       30.23S
SCRANTON       MOCLDY    68  61  78 CALM      30.25R
$$

CTZ002-004>006-009-010-012-RIZ004-006-007-MAZ004-011-015-051000-
SOUTHERN NEW ENGLAND
 IN CT

CITY           SKY/WX    TMP DP  RH WIND       PRES   REMARKS
BRADLEY INTL   CLEAR     55  53  93 CALM      30.25R
HARTFORD       CLEAR     59  55  87 N5        30.25R
DANBURY        CLEAR     58  54  86 CALM      30.26R
WTRBRY/OXFORD  CLEAR     55  48  76 CALM      30.27R
BRIDGEPORT     CLEAR     65  56  72 NE9       30.24R
MERIDEN        CLEAR     58  54  86 CALM      30.25R
NEW HAVEN      CLEAR     59  55  87 N6        30.24R
CHESTER        NOT AVBL
GROTON         PTCLDY    59  58  96 N9        30.23R
WILLIMANTIC    CLOUDY    57  54  89 N3        30.26R

 IN RI

CITY           SKY/WX    TMP DP  RH WIND       PRES   REMARKS
PROVIDENCE     CLEAR     58  56  93 N6        30.25R
BLOCK ISLAND   PTCLDY    63  59  88 NE7       30.22S
WESTERLY       CLEAR     57  56  96 N3        30.24R

 IN MA

CITY           SKY/WX    TMP DP  RH WIND       PRES   REMARKS
BOSTON         CLEAR     59  55  87 N6        30.27R
WORCESTER      CLEAR     55  46  71 N3        30.27R
WESTFIELD      CLEAR     56  54  93 CALM      30.26R
PROVINCETOWN     N/A     54  46  76 NE6       30.25R
NANTUCKET        N/A    N/A N/A N/A MISG        N/A
$$

ANZ330-335-338-340-345-350-353-355-051000-
COASTAL MARINE OBSERVATIONS


STATION/POSITION TIME  SKY/WX   TEMP    WIND        PRES    VSBY  WAVE
                                AIR SEA DIR/SP/G                  HT/PER
                 (UTC)          (F)     (DEG/KT/KT) (MB)    (MI)  (FT/S)
NY HARB ENTRANCE 0750            70 74   60/ 16/ 19 1022.1          5/ 7
4S FIRE IS       NOT AVBL
20S FIRE ISLAND  0750            70 75   60/ 17/ 21 1021.9          7/ 7
GREAT SOUTH BAY  0830            67 77   60/ 10/ 12   N/A
23SW MTP         0850            67 72   60/ 14/ 16 1022.6          5/ 7
HUDSON CANYON    NOT AVBL
KINGS POINT      0800            66 74   CALM  /  2 1022.6
EXECUTION ROCKS  0800            70      90/ 10/ 14   N/A
CENTRAL LI SOUND NOT AVBL
EASTERN LI SOUND 0800            64 71   20/ 12/ 14   N/A
ROBBINS REEF     0800            69      70/ 10/ 12 1022.2
$$


>>>>>>>>>>>>>>>>>>>>>>>>>>>> KEY <<<<<<<<<<<<<<<<<<<<<<<<<<<
>                                                          <
>     SKY/WX - SKY CONDITION/PRESENT WEATHER               <
>     TMP    - TEMPERATURE IN FAHRENHEIT                   <
>     DP     - DEWPOINT IN FAHRENHEIT                      <
>     RH     - RELATIVE HUMIDITY IN PERCENT                <
>     WIND   - DIRECTION AND SPEED IN MPH                  <
>     PRES   - MEAN SEA LEVEL PRESSURE IN INCHES OF HG     <
>     WCI    - WIND CHILL INDEX                            <
>     VSB    - VISIBILITY IN MILES                         <
>     HX     - HEAT INDEX                                  <
>     TC     - TEMPERATURE IN CELSIUS                      <
>     VRB    - VARIABLE WIND DIRECTION                     <
>                                                          <
>>>>>>>>>>>>>>>>>>>>>>>>>>>> KEY <<<<<<<<<<<<<<<<<<<<<<<<<<<





USA.gov is the U.S. government's official web portal to all federal, state and local government web resources and services.